Location: Brunsen
(51.8651°N, 9.8610°E)
Time: 10:35:01
(UTC+00:00)

MOZ.5/SAFIR/RUBIN 5/SL-8 - Pass Details

Date: 23 May 2024
Orbit: 671 x 700 km, 98.3° (Epoch: 24 June)

Event Time Altitude Azimuth Distance (km) Brightness Sun altitude
Exits shadow 01:18:35 18° 198° (SSW) 1,666 5.1 -12.8°
Maximum altitude 01:21:44 43° 262° (W) 983 4.3 -12.6°
Drops below altitude 10° 01:26:14 10° 334° (NNW) 2,160 6.8 -12.2°
Sets 01:28:36 0° 341° (NNW) 3,077 7.7 -12.0°
